Location: Asheville, NC
(35.6000°N, 82.5500°W)
Time: 06:59:35
(UTC-05:00)

Vanguard 1 Rocket - Pass Details

Date: 16 February 2018
Orbit: 655 x 4222 km, 34.3° (Epoch: 18 February)

Event Time Altitude Azimuth Distance (km) Brightness Sun altitude
Rises 02:52:57 0° 267° (W) 8,052 - -52.8°
Reaches altitude 10° 02:58:10 10° 268° (W) 7,239 - -51.9°
Exits shadow 03:22:21 78° 256° (WSW) 4,045 10.2 -47.5°
Maximum altitude 03:24:58 87° 184° (S) 3,900 10.2 -47.0°
Drops below altitude 10° 03:44:04 10° 98° (E) 5,484 11.9 -43.3°
Sets 03:47:22 0° 98° (E) 6,129 12.3 -42.7°
